EW2345 Weather Reports


Display with metric or nautical units.
time (UTC)temp
F
wind
direction
speed
MPH
gust
MPH
rain 1hr
in
rain 24hr
in
rain mn
in
humidity
%
barometer
mb
20260831011315 55 38 1.0 2.0 0.00 0.04 0.00 95 1021.8
20260831010815 55 38 0.0 5.0 0.00 0.04 0.00 95 1021.7
20260831005816 55 38 2.0 6.0 0.00 0.04 0.00 95 1021.8
20260831005315 55 38 2.0 5.0 0.00 0.04 0.00 94 1021.9
20260831004815 55 38 0.0 0.0 0.00 0.04 0.00 94 1021.9
20260831003815 55 38 0.0 0.0 0.00 0.04 0.00 94 1021.9
20260831003316 55 38 0.0 0.0 0.00 0.04 0.00 94 1021.9
20260831002816 55 38 0.0 0.0 0.00 0.04 0.00 94 1021.9
20260831002315 55 38 0.0 0.0 0.00 0.04 0.00 94 1021.9
20260831001815 55 38 0.0 0.0 0.00 0.04 0.00 94 1021.9
20260831001315 55 38 0.0 0.0 0.00 0.04 0.00 94 1021.9
20260831000815 56 38 1.0 6.0 0.00 0.04 0.00 94 1021.9
20260831000317 56 38 0.0 0.0 0.00 0.04 0.00 93 1021.8
20260830235815 56 38 0.0 2.0 0.00 0.04 0.00 93 1021.8
20260830235315 56 38 2.0 5.0 0.00 0.04 0.00 93 1021.7
20260830234815 56 37 2.0 5.0 0.00 0.04 0.00 93 1021.8
20260830234315 56 37 1.0 6.0 0.00 0.04 0.00 92 1021.8
20260830233814 56 4 2.0 5.0 0.00 0.04 0.00 91 1021.8
20260830233315 57 0 0.0 3.0 0.00 0.04 0.00 91 1021.7
20260830232815 57 0 0.0 0.0 0.00 0.04 0.00 90 1021.8
20260830232315 57 0 0.0 0.0 0.00 0.04 0.00 90 1021.8
20260830231315 57 0 0.0 0.0 0.00 0.04 0.00 89 1022.0
20260830230815 58 0 0.0 0.0 0.00 0.04 0.00 88 1022.0
20260830230316 58 0 0.0 0.0 0.00 0.04 0.00 88 1022.1
20260830225816 60 0 0.0 0.0 0.00 0.04 0.00 86 1021.7
20260830224315 60 0 0.0 0.0 0.00 0.04 0.00 86 1021.7
20260830223815 60 0 0.0 0.0 0.00 0.04 0.00 86 1021.7
20260830223316 60 0 0.0 0.0 0.00 0.04 0.00 86 1021.7
20260830222816 60 0 0.0 0.0 0.00 0.04 0.00 86 1021.7
20260830221315 60 0 0.0 0.0 0.00 0.04 0.00 86 1021.7
20260830220816 60 0 0.0 0.0 0.00 0.04 0.00 86 1021.7
20260830220315 60 0 0.0 0.0 0.00 0.04 0.00 86 1021.6
20260830215816 60 0 0.0 0.0 0.00 0.04 0.00 85 1021.6
20260830215315 61 0 0.0 0.0 0.00 0.04 0.04 84 1021.7
20260830214815 61 0 0.0 0.0 0.00 0.04 0.04 84 1021.6
20260830214315 61 0 0.0 0.0 0.00 0.04 0.04 84 1021.5
20260830213315 62 0 0.0 0.0 0.00 0.05 0.04 85 1021.4
20260830212816 62 0 0.0 0.0 0.00 0.05 0.04 85 1021.3
20260830212315 62 0 2.0 6.0 0.00 0.05 0.04 85 1021.2
20260830211815 62 315 0.0 5.0 0.00 0.05 0.04 85 1021.1
20260830211314 62 313 0.0 8.0 0.00 0.05 0.04 85 1021.0
20260830210815 62 328 3.0 8.0 0.00 0.05 0.04 85 1021.0
20260830210315 62 354 4.0 9.0 0.00 0.05 0.04 84 1020.9
20260830205315 62 252 0.0 1.0 0.00 0.05 0.04 84 1020.8
20260830204815 63 252 0.0 0.0 0.00 0.05 0.04 83 1020.9
20260830204315 63 252 0.0 0.0 0.00 0.05 0.04 83 1020.9
20260830203815 63 252 0.0 0.0 0.00 0.05 0.04 82 1020.9
20260830203315 63 252 0.0 0.0 0.00 0.05 0.04 81 1020.9
20260830202816 64 252 0.0 2.0 0.00 0.05 0.04 80 1020.9
20260830202315 64 252 0.0 2.0 0.00 0.05 0.04 80 1020.9
20260830201816 64 252 0.0 5.0 0.00 0.05 0.04 80 1020.8
20260830195816 65 226 2.0 7.0 0.00 0.05 0.04 79 1020.5
20260830195315 65 250 5.0 8.0 0.00 0.05 0.04 78 1020.5
20260830194815 66 250 5.0 10.0 0.00 0.05 0.04 77 1020.4
20260830194315 66 263 3.0 9.0 0.00 0.05 0.04 76 1020.4
20260830193815 66 243 4.0 6.0 0.00 0.05 0.04 76 1020.3
20260830193315 67 271 0.0 0.0 0.00 0.05 0.04 75 1020.2
20260830192315 67 268 2.0 6.0 0.00 0.05 0.04 75 1020.1
20260830191815 67 266 1.0 5.0 0.00 0.05 0.04 74 1020.0
20260830191316 68 264 2.0 6.0 0.00 0.05 0.04 74 1019.9
20260830190815 68 290 1.0 5.0 0.00 0.05 0.04 74 1020.0
20260830190315 68 285 1.0 6.0 0.00 0.05 0.04 75 1019.9
20260830185816 69 254 1.0 3.0 0.00 0.05 0.04 74 1019.8
20260830185315 69 254 1.0 9.0 0.00 0.05 0.04 75 1019.8
20260830184815 69 235 5.0 9.0 0.00 0.05 0.04 75 1019.7
20260830184315 69 235 6.0 10.0 0.00 0.05 0.04 74 1019.6
20260830183815 70 231 6.0 10.0 0.00 0.05 0.04 73 1019.6
20260830183315 70 241 6.0 12.0 0.00 0.05 0.04 73 1019.6
20260830182816 70 240 6.0 12.0 0.00 0.05 0.04 73 1019.6
20260830182315 71 239 7.0 12.0 0.00 0.05 0.04 72 1019.6
20260830181815 71 240 5.0 8.0 0.00 0.05 0.04 72 1019.5
20260830181315 71 245 5.0 8.0 0.00 0.05 0.04 72 1019.5
20260830180815 71 234 8.0 12.0 0.00 0.05 0.04 72 1019.5
20260830180316 71 239 7.0 12.0 0.00 0.05 0.04 71 1019.5
20260830175816 72 245 6.0 13.0 0.00 0.05 0.04 71 1019.5
20260830175315 72 248 6.0 10.0 0.00 0.05 0.04 71 1019.5
20260830174815 72 228 7.0 10.0 0.00 0.05 0.04 70 1019.5
20260830174315 72 238 6.0 12.0 0.00 0.05 0.04 69 1019.5
20260830173815 73 242 6.0 12.0 0.00 0.05 0.04 69 1019.5
20260830173315 73 247 7.0 13.0 0.00 0.05 0.04 69 1019.5
20260830172816 73 238 7.0 12.0 0.00 0.05 0.04 69 1019.5
20260830172315 73 247 7.0 14.0 0.00 0.05 0.04 68 1019.5
20260830171815 73 236 7.0 12.0 0.00 0.05 0.04 68 1019.5
20260830170816 73 239 7.0 13.0 0.00 0.05 0.04 68 1019.5
20260830170315 73 242 6.0 12.0 0.00 0.05 0.04 68 1019.4
20260830164315 74 231 8.0 12.0 0.00 0.05 0.04 67 1019.3
20260830163815 74 230 7.0 12.0 0.00 0.05 0.04 64 1019.2
20260830163315 75 237 7.0 12.0 0.00 0.05 0.04 64 1019.3
20260830162816 75 226 8.0 14.0 0.00 0.05 0.04 65 1019.3
20260830162315 75 240 8.0 13.0 0.00 0.05 0.04 63 1019.2
20260830161315 75 248 9.0 14.0 0.00 0.05 0.04 63 1019.1
20260830160815 76 254 7.0 13.0 0.00 0.05 0.04 62 1019.0
20260830160315 76 241 6.0 12.0 0.00 0.05 0.04 62 1019.1
20260830155816 76 248 7.0 14.0 0.00 0.05 0.04 62 1019.1
20260830154815 76 242 7.0 12.0 0.00 0.05 0.04 60 1019.0
20260830153816 76 265 5.0 12.0 0.00 0.05 0.04 62 1019.0
20260830152816 76 250 7.0 13.0 0.00 0.05 0.04 61 1018.9
20260830152315 76 247 6.0 16.0 0.00 0.05 0.04 62 1018.8
20260830151815 76 261 7.0 13.0 0.00 0.05 0.04 62 1018.9
20260830150815 76 225 9.0 14.0 0.00 0.05 0.04 62 1018.7
20260830150315 76 247 7.0 13.0 0.00 0.05 0.04 61 1018.7
20260830145816 76 239 8.0 12.0 0.00 0.05 0.04 61 1018.8
20260830145315 77 221 7.0 13.0 0.00 0.05 0.04 59 1018.9
20260830144815 76 245 9.0 14.0 0.00 0.05 0.04 60 1018.9
20260830144315 76 250 9.0 15.0 0.00 0.05 0.04 61 1019.0
20260830143314 76 245 7.0 12.0 0.00 0.05 0.04 61 1019.0
20260830142816 76 260 9.0 14.0 0.00 0.05 0.04 61 1019.1
20260830142315 76 224 7.0 12.0 0.00 0.05 0.04 62 1019.2
20260830141815 76 251 9.0 13.0 0.00 0.05 0.04 62 1019.1
20260830141315 76 214 9.0 16.0 0.00 0.05 0.04 62 1019.2
20260830140315 76 262 7.0 13.0 0.00 0.05 0.04 62 1019.3
20260830135816 76 240 9.0 14.0 0.00 0.05 0.04 62 1019.3
20260830134815 75 239 5.0 12.0 0.00 0.05 0.04 63 1019.3
20260830134315 76 241 6.0 9.0 0.00 0.05 0.04 63 1019.3
20260830133814 76 227 6.0 12.0 0.00 0.05 0.04 62 1019.3
20260830133315 75 260 5.0 12.0 0.00 0.05 0.04 63 1019.2
20260830132816 76 250 7.0 13.0 0.00 0.05 0.04 63 1019.3
20260830132315 76 251 7.0 12.0 0.00 0.05 0.04 62 1019.2
20260830131815 75 229 9.0 12.0 0.00 0.05 0.04 62 1019.2
20260830131315 75 232 7.0 14.0 0.00 0.05 0.04 62 1019.2
20260830130815 75 250 11.0 18.0 0.00 0.05 0.04 63 1019.3
20260830125816 75 249 6.0 10.0 0.00 0.05 0.04 63 1019.5
20260830125315 75 227 7.0 14.0 0.00 0.05 0.04 64 1019.5
20260830124815 76 229 8.0 14.0 0.00 0.05 0.04 65 1019.6
20260830124315 75 220 9.0 14.0 0.00 0.05 0.04 64 1019.6
20260830123315 74 237 10.0 14.0 0.00 0.05 0.04 63 1019.8
20260830122816 75 248 6.0 13.0 0.00 0.05 0.04 65 1019.8
20260830122314 74 249 10.0 16.0 0.00 0.05 0.04 64 1019.8
20260830121315 74 244 9.0 14.0 0.00 0.05 0.04 67 1019.9
20260830120315 74 249 9.0 16.0 0.00 0.05 0.04 66 1020.0
20260830115816 73 254 7.0 15.0 0.00 0.05 0.04 65 1020.1
20260830115315 73 265 8.0 15.0 0.00 0.05 0.04 63 1020.2
20260830114815 74 247 9.0 13.0 0.00 0.05 0.04 65 1020.3
20260830114315 73 238 7.0 13.0 0.00 0.05 0.04 67 1020.3
20260830113815 74 257 7.0 14.0 0.00 0.05 0.04 66 1020.4
20260830113316 73 253 7.0 16.0 0.00 0.05 0.04 66 1020.3
20260830110815 72 236 9.0 16.0 0.00 0.05 0.04 69 1020.1
20260830110315 72 238 11.0 15.0 0.00 0.05 0.04 72 1020.1
20260830105816 72 234 10.0 18.0 0.00 0.05 0.04 74 1020.2
20260830105315 72 234 6.0 10.0 0.00 0.05 0.04 73 1020.2
20260830104315 71 249 7.0 12.0 0.00 0.05 0.04 79 1020.3
20260830103815 71 255 5.0 9.0 0.00 0.05 0.04 79 1020.3
20260830103315 70 240 6.0 12.0 0.00 0.05 0.04 80 1020.3
20260830102816 70 235 7.0 13.0 0.00 0.05 0.04 81 1020.3
20260830102315 70 242 7.0 13.0 0.00 0.05 0.04 82 1020.3
20260830101815 69 254 6.0 12.0 0.00 0.05 0.04 83 1020.2
20260830101315 69 252 5.0 8.0 0.00 0.05 0.04 86 1020.1
20260830100815 69 226 6.0 10.0 0.00 0.05 0.04 85 1020.0
20260830100316 68 311 6.0 12.0 0.00 0.05 0.04 87 1020.1
20260830095315 67 234 5.0 10.0 0.00 0.05 0.04 89 1019.9
20260830094815 66 261 6.0 12.0 0.00 0.05 0.04 91 1019.8
20260830094315 66 249 4.0 9.0 0.00 0.05 0.04 90 1019.8
20260830093815 66 236 2.0 6.0 0.00 0.05 0.04 91 1019.8
20260830093315 65 230 5.0 10.0 0.00 0.05 0.04 91 1019.8
20260830092816 66 236 5.0 9.0 0.00 0.05 0.04 93 1019.7
20260830092316 65 272 3.0 9.0 0.00 0.05 0.04 93 1019.7
20260830091815 65 249 3.0 8.0 0.00 0.05 0.04 92 1019.7
20260830091315 66 246 6.0 12.0 0.00 0.05 0.04 94 1019.7
20260830090815 65 262 5.0 10.0 0.00 0.05 0.04 95 1019.7
20260830090316 65 234 3.0 12.0 0.00 0.05 0.04 95 1019.7
20260830085815 65 254 6.0 12.0 0.00 0.05 0.04 96 1019.7
20260830085315 65 282 5.0 10.0 0.00 0.05 0.04 97 1019.7
20260830084815 64 248 5.0 12.0 0.00 0.05 0.04 98 1019.8
20260830084316 64 241 2.0 8.0 0.00 0.05 0.04 98 1019.6
20260830083816 63 274 2.0 10.0 0.00 0.05 0.04 98 1019.5
20260830083315 64 232 3.0 9.0 0.00 0.05 0.04 99 1019.5
20260830082816 63 245 3.0 8.0 0.00 0.05 0.04 99 1019.4
20260830082315 63 245 3.0 10.0 0.00 0.05 0.04 99 1019.4
20260830081815 63 255 2.0 8.0 0.00 0.05 0.04 99 1019.4
20260830080815 63 239 2.0 7.0 0.00 0.05 0.04 99 1019.3
20260830080315 63 239 0.0 6.0 0.00 0.05 0.04 100 1019.3
20260830075817 63 241 3.0 9.0 0.00 0.05 0.04 100 1019.2
20260830075315 63 223 6.0 9.0 0.00 0.05 0.04 100 1019.2
20260830074815 63 248 1.0 6.0 0.00 0.05 0.04 100 1019.1
20260830074315 63 248 4.0 7.0 0.00 0.05 0.04 100 1019.1
20260830073816 63 250 2.0 5.0 0.00 0.05 0.04 100 1019.1
20260830073315 63 250 2.0 8.0 0.00 0.05 0.04 100 1019.1
20260830072816 64 236 1.0 6.0 0.00 0.05 0.04 100 1019.0
20260830071815 63 236 0.0 0.0 0.00 0.05 0.04 100 1018.9
20260830071315 63 236 0.0 0.0 0.00 0.05 0.04 100 1018.9
20260830070815 63 236 0.0 5.0 0.00 0.05 0.04 100 1018.8
20260830070315 63 236 2.0 5.0 0.00 0.05 0.04 100 1018.8
20260830065816 63 236 3.0 7.0 0.00 0.05 0.04 100 1018.8
20260830065315 63 223 2.0 8.0 0.00 0.05 0.04 99 1018.7
20260830064815 63 227 4.0 6.0 0.00 0.05 0.04 99 1018.7
20260830064315 63 236 3.0 7.0 0.00 0.05 0.04 99 1018.7
20260830063815 63 232 4.0 8.0 0.00 0.05 0.04 99 1018.6
20260830063315 63 239 5.0 9.0 0.00 0.05 0.04 99 1018.6
20260830062315 63 219 3.0 7.0 0.00 0.05 0.04 99 1018.6
20260830061815 63 230 3.0 7.0 0.00 0.05 0.04 99 1018.5
20260830061315 63 241 5.0 9.0 0.00 0.05 0.04 99 1018.5
20260830060815 63 236 4.0 9.0 0.00 0.05 0.04 99 1018.5
20260830060315 63 242 5.0 8.0 0.00 0.05 0.04 99 1018.4
20260830055817 63 242 2.0 6.0 0.00 0.05 0.04 99 1018.4
20260830055316 63 242 3.0 6.0 0.00 0.05 0.04 99 1018.3
20260830054816 63 242 2.0 5.0 0.00 0.05 0.04 99 1018.3
20260830054315 63 242 2.0 6.0 0.00 0.05 0.04 99 1018.3
20260830053816 63 242 2.0 5.0 0.04 0.05 0.04 99 1018.3
20260830053315 63 242 2.0 7.0 0.04 0.05 0.04 99 1018.3
20260830052315 64 242 5.0 8.0 0.04 0.05 0.04 99 1018.3
20260830051815 64 237 3.0 8.0 0.04 0.05 0.04 99 1018.2
20260830051315 64 237 4.0 8.0 0.04 0.05 0.04 99 1018.2
20260830050816 64 235 5.0 9.0 0.04 0.05 0.04 99 1018.2
20260830050315 64 248 4.0 8.0 0.04 0.05 0.04 99 1018.3
20260830045816 64 241 6.0 10.0 0.04 0.05 0.04 99 1018.2
20260830044816 64 229 4.0 8.0 0.04 0.05 0.04 99 1018.3
20260830044315 64 223 3.0 7.0 0.04 0.05 0.04 99 1018.3
20260830043816 64 244 2.0 7.0 0.00 0.01 0.00 99 1018.3
20260830042817 64 244 0.0 3.0 0.00 0.01 0.00 99 1018.3
20260830042315 64 244 0.0 0.0 0.00 0.02 0.00 99 1018.2
20260830041815 64 244 0.0 0.0 0.00 0.02 0.00 99 1018.2
20260830041315 64 244 0.0 5.0 0.00 0.02 0.00 99 1018.2
20260830040815 64 244 1.0 5.0 0.00 0.02 0.00 99 1018.2
20260830040315 64 244 0.0 0.0 0.00 0.02 0.00 99 1018.2
20260830035816 64 244 0.0 3.0 0.00 0.02 0.00 99 1018.3
20260830035315 64 244 1.0 5.0 0.00 0.02 0.00 99 1018.3
20260830034815 64 244 1.0 5.0 0.00 0.02 0.00 99 1018.3
20260830034315 64 244 0.0 5.0 0.00 0.02 0.00 99 1018.3
20260830033815 64 244 1.0 3.0 0.00 0.02 0.00 99 1018.4
20260830033316 64 244 2.0 5.0 0.00 0.02 0.00 99 1018.4
20260830032817 64 244 0.0 2.0 0.00 0.02 0.00 99 1018.5
20260830032315 64 244 0.0 2.0 0.00 0.02 0.00 99 1018.5
20260830031816 64 244 0.0 0.0 0.00 0.02 0.00 99 1018.5
20260830030815 64 244 2.0 5.0 0.00 0.02 0.00 99 1018.7
20260830030316 64 244 1.0 3.0 0.00 0.02 0.00 99 1018.7
20260830025315 64 244 4.0 6.0 0.00 0.02 0.00 98 1018.9
20260830024815 64 244 1.0 7.0 0.00 0.02 0.00 98 1018.9
20260830023315 64 243 2.0 7.0 0.00 0.02 0.00 99 1018.9
20260830022315 65 243 2.0 6.0 0.00 0.02 0.00 98 1019.0
20260830021815 65 243 3.0 6.0 0.00 0.02 0.00 98 1019.0
20260830021315 65 243 1.0 7.0 0.00 0.02 0.00 99 1019.0
20260830020815 65 242 3.0 6.0 0.00 0.02 0.00 98 1019.0
20260830020316 65 242 5.0 8.0 0.00 0.02 0.00 98 1019.0
20260830015315 65 239 6.0 9.0 0.00 0.02 0.00 98 1019.1
20260830014315 65 243 6.0 10.0 0.00 0.02 0.00 98 1019.2
20260830013315 65 236 3.0 7.0 0.00 0.02 0.00 98 1019.2
20260830012816 65 233 2.0 7.0 0.00 0.02 0.00 98 1019.3
20260830012315 65 244 2.0 7.0 0.00 0.02 0.00 98 1019.3